Location: Bercimuel
(41.3983°N, 3.5711°W)
Time: 05:36:47
(UTC+00:00)

Meteor 1-31 Rocket - Pass Details

Date: 15 May 2026
Orbit: 453 x 471 km, 97.6° (Epoch: 6 June)

Event Time Altitude Azimuth Distance (km) Brightness Sun altitude
Exits shadow 20:29:23 - 181° (S) 2,129 5.5 -10.8°
Reaches altitude 10° 20:30:38 10° 185° (S) 1,613 4.9 -11.0°
Maximum altitude 20:33:58 46° 260° (W) 631 3.4 -11.5°
Drops below altitude 10° 20:37:20 10° 335° (NNW) 1,616 6.3 -12.0°
Sets 20:39:26 0° 342° (NNW) 2,492 7.2 -12.3°
